Location: Newark
(7.0858°N, 171.3717°E)
Time: 02:28:52
(UTC+00:00)

Transit 4A - Pass Details

Date: 05 December 2020
Orbit: 864 x 980 km, 66.8° (Epoch: 20 January)

Event Time Altitude Azimuth Distance (km) Brightness Sun altitude
Rises 18:53:07 0° 236° (WSW) 3,570 10.6 3.6°
Reaches altitude 10° 18:56:41 10° 257° (WSW) 2,650 9.8 4.4°
Maximum altitude 19:00:19 16° 294° (WNW) 2,261 9.4 5.3°
Drops below altitude 10° 19:03:59 10° 330° (NNW) 2,689 9.9 6.1°
Sets 19:07:41 0° 351° (N) 3,650 10.7 6.9°
